DW7023 Weather Reports


time (UTC)temp
C
wind
direction
speed
KPH
gust
KPH
rain 1hr
cm
rain 24hr
cm
rain mn
cm
humidity
%
barometer
mb
20260507203132 24 338 3.2 9.7 0.00 0.00 0.00 95 1007.6
20260507190022 25 360 6.4 14.5 0.00 0.00 0.00 92 1007.9
20260507180139 25 355 6.4 14.5 0.00 0.00 0.00 88 1008.2
20260507174552 26 343 6.4 14.5 0.00 0.00 0.00 88 1008.4
20260507164636 26 343 6.4 14.5 0.00 0.00 0.00 87 1008.9
20260507163008 26 360 6.4 14.5 0.00 0.00 0.00 87 1009.3
20260507154646 25 355 4.8 16.1 0.00 0.00 0.00 89 1010.3
20260507153118 25 333 1.6 8.0 0.00 0.00 0.00 90 1010.7
20260507143104 24 23 4.8 14.5 0.00 0.00 0.00 93 1012.2
20260507133113 24 360 1.6 16.1 0.00 0.00 0.00 93 1013.3
20260507121629 23 4 3.2 12.9 0.00 0.00 0.00 94 1014.0
20260507120036 23 355 0.0 8.0 0.00 0.00 0.00 94 1013.9
20260507110038 23 341 0.0 8.0 0.00 0.00 0.00 97 1014.0
20260507100048 22 355 6.4 9.7 0.00 0.00 0.00 100 1013.9
20260507083051 22 360 0.0 0.0 0.00 0.00 0.00 100 1013.4
20260507073151 23 360 0.0 0.0 0.00 0.00 0.00 100 1013.5
20260507071604 23 360 0.0 0.0 0.00 0.00 0.00 100 1013.6
20260507070019 23 360 0.0 0.0 0.00 0.00 0.00 100 1013.7
20260507061657 23 360 0.0 0.0 0.00 0.00 0.00 99 1014.3
20260507060104 23 6 0.0 3.2 0.00 0.00 0.00 99 1014.4
20260507050153 23 6 0.0 4.8 0.00 0.00 0.00 98 1015.1
20260507044543 23 360 0.0 4.8 0.00 0.00 0.00 98 1015.4
20260507040123 23 360 0.0 6.4 0.00 0.00 0.00 98 1015.5
20260507030114 23 46 0.0 4.8 0.00 0.00 0.00 98 1016.1
20260507024508 23 46 0.0 3.2 0.00 0.00 0.00 98 1016.2
20260507014604 23 46 0.0 3.2 0.00 0.00 0.00 97 1016.5
20260507004545 23 23 0.0 4.8 0.00 0.00 0.00 96 1016.7
20260506234550 23 350 0.0 4.8 0.00 0.00 0.00 96 1017.2
20260506224601 23 29 0.0 4.8 0.00 0.00 0.00 97 1016.7
20260506214613 23 337 0.0 4.8 0.00 0.00 0.00 97 1016.4
20260506213012 23 335 0.0 4.8 0.00 0.00 0.00 97 1016.4